Regional Weather Roundup
Issued by NWS

Home | Current Version | Previous Version | Text Only | Print | Product List | Glossary Off
Versions: 1 2 3 4 5 6 7 8 9 10 11 12 13 14 15 16 17 18 19 20 21 22 23 24 25 26 27 28 29 30 31 32 33 34 35 36 37 38 39 40 41 42 43 44 45 46 47 48 49 50

000
ASUS45 KABQ 210501
RWRNM
WEATHER ROUNDUP FOR NEW MEXICO
NATIONAL WEATHER SERVICE ALBUQUERQUE NM
1100 PM MDT MON APR 20 2015

NOTE: "FAIR" MEANS FEW OR NO CLOUDS BELOW 12,000 FEET AGL WITH NO
       SIGNIFICANT WEATHER OR OBSTRUCTIONS TO VISION.

      THIS PRODUCT IS RELEASED AS TWO VERSIONS.  ONE VERSION NEAR
      THE TOP OF THE HOUR CONTAINING PRELIMINARY DATA FROM ALBUQUERQUE
      AND OTHER STATIONS.  A FINAL VERSION WITH ADDITIONAL DATA IS
      ISSUED ABOUT 10 MINUTES AFTER THE HOUR.

NMZ501-503-504-510>518-210600-
NORTHWEST PLATEAU/NORTHCENTRAL MOUNTAINS

CITY           SKY/WX    TMP DP  RH WIND       PRES   REMARKS
FARMINGTON     CLEAR     46  25  43 NE7       29.94R
SANTA FE       MOCLDY    50  20  30 W6        29.98R
TAOS           PTCLDY    39  21  48 CALM      30.03R
ANGEL FIRE     FAIR      30  25  81 CALM      30.08R

$$
NMZ402-403-502-505>509-210600-
WESTCENTRAL MOUNTAINS/SOUTHWEST MOUNTAINS

CITY           SKY/WX    TMP DP  RH WIND       PRES   REMARKS
GALLUP         MOCLDY    46  17  31 CALM      30.02R
GRANTS         PTCLDY    47  19  32 SW3       30.03F
SILVER CITY      N/A     48  19  32 NW7       29.98S

$$
NMZ407-409-411-412-210600-
SOUTHERN DESERTS

CITY           SKY/WX    TMP DP  RH WIND       PRES   REMARKS
DEMING         PTCLDY    60  20  21 NW6       29.92R
HOLLOMAN AFB   MOCLDY    67  25  20 NE5       29.88R
ALAMOGORDO     MOCLDY    66  25  20 S3        29.90S
T OR C         PTCLDY    58  21  24 W8        29.93R

$$
NMZ519>523-210600-
CENTRAL VALLEYS/CENTRAL HIGHLANDS

CITY           SKY/WX    TMP DP  RH WIND       PRES   REMARKS
ALBUQUERQUE    MOCLDY    55  23  28 S7        29.97R
DOUBLE EAGLE   MOCLDY    50  23  35 W6        29.99R
MORIARTY ARPT  FAIR      44  20  39 CALM      30.01S
CLINES CORNERS PTCLDY    44  20  38 W14       30.00F
BELEN          MOCLDY    61  24  24 SW5       29.98R
SOCORRO        NOT AVBL

$$
NMZ524>526-539-540-210600-
SOUTHCENTRAL MOUNTAINS

CITY           SKY/WX    TMP DP  RH WIND       PRES   REMARKS
RUIDOSO        NOT AVBL

$$
NMZ527>531-210600-
NORTHEAST HIGHLANDS/NORTHEAST PLAINS

CITY           SKY/WX    TMP DP  RH WIND       PRES   REMARKS
LAS VEGAS      PTCLDY    38  32  79 NE8       30.01R WCI  32
RATON          CLEAR     40  36  86 N7        29.98R
CLAYTON        CLOUDY    44  41  89 S6        29.97S

$$
NMZ532>537-210600-
EASTCENTRAL PLAINS

CITY           SKY/WX    TMP DP  RH WIND       PRES   REMARKS
TUCUMCARI      MOCLDY    49  45  86 E9        29.90F
CANNON AFB     PTCLDY    55  38  54 E5        29.91F
CLOVIS AIRPORT MOCLDY    57  36  44 SE10      29.93S

$$
NMZ028-029-538-210600-
SOUTHEAST PLAINS

CITY           SKY/WX    TMP DP  RH WIND       PRES   REMARKS
ROSWELL        MOCLDY    57  41  55 VRB3      29.92R
ARTESIA        PTCLDY    57  39  51 S13       29.91F
CARLSBAD       CLEAR     57  41  55 S10       29.89S
HOBBS          CLEAR     55  41  58 S9        29.94S


$$


USA.gov is the U.S. government's official web portal to all federal, state and local government web resources and services.